カタリナ彗星

257P/Catalina (2020)

English version
Home page
Updated on January 20, 2022

---------------------------------------------------------------------

・ プロフィール

・ 写真集

・ 軌道要素

Epoch 2021 July 5.0 TT = JDT 2459400.5
T 2020 Sept. 10.72847 TT                                Rudenko
q   2.1426055            (2000.0)            P               Q
n   0.13508180     Peri.  117.65514     +0.79761908     +0.58131369
a   3.7618790      Node   207.73411     -0.59857919     +0.79570057
e   0.4304427      Incl.   20.22308     +0.07420752     +0.17010288
P   7.30
From 2145 observations 2005 Apr. 17-2021 Sept. 2, mean residual 0".6.
     Nongravitational parameters A1 = -0.14, A2 = -0.0301.

・ 星図

・ 光度変化

        m1 = 12.5 + 5 logΔ + 10.0 log r

---------------------------------------------------------------------

軌道要素はM.P.E.C. 2021-S45に掲載されたものです。
星図はステラナビゲータ Ver.10 (アストロアーツ) で作成したものです。
光度グラフはComet for Windowsで作成したものです。

---------------------------------------------------------------------

Copyright(C) Seiichi Yoshida (comet@aerith.net). All rights reserved.